{"data":{"norad_id":65985,"intl_designator":"2025-230M","name":"SDA_1675","alt_names":[],"object_type":"PAYLOAD","status":"ACTIVE","operator":null,"country":"US","launch_date":"2025-10-15","launch_site_code":"AFWTR","launch_vehicle":null,"mission":null,"orbit_class":"UNKNOWN","rcs_meters":null,"size_class":null,"mass_kg":null,"dimensions":null,"purposes":[],"wikipedia_slug":null,"has_3d_model":false,"image_url":null,"decayed_at":null,"tle_current":{"epoch":"2026-05-25T04:17:15.584640Z","epoch_age_seconds":62681,"freshness":"FRESH","line1":"1 65985U 25230M   26145.17865260  .00000200  00000+0  16698-3 0  9992","line2":"2 65985  81.2986 233.0289 0002597 195.9191 164.1884 13.84758501 30629","mean_motion":13.84758501,"eccentricity":0.0002597,"inclination_deg":81.2986,"raan_deg":233.0289,"arg_perigee_deg":195.9191,"mean_anomaly_deg":164.1884,"bstar":0.00016698,"rev_number":3062,"period_min":103.98925148032,"perigee_km":945.15493403374,"apogee_km":948.95963994641,"semimajor_km":7325.1942869901,"source":"CELESTRAK","updated_at":"2026-05-25T13:38:05.879536Z"}}}